TimeMDT,TemperatureF,Dew PointF,Humidity,Sea Level PressureIn,VisibilityMPH,Wind Direction,Wind SpeedMPH,Gust SpeedMPH,PrecipitationIn,Events,Conditions,WindDirDegrees,DateUTC
12:53 AM,72.0,42.1,34,29.80,10.0,SSE,3.5,-,N/A,,Clear,160,2013-08-21 06:53:00
1:53 AM,71.1,43.0,36,29.81,10.0,SW,6.9,-,N/A,,Clear,220,2013-08-21 07:53:00
2:53 AM,70.0,39.9,33,29.82,10.0,SSW,6.9,-,N/A,,Clear,200,2013-08-21 08:53:00
3:53 AM,68.0,39.0,35,29.84,10.0,Calm,Calm,-,N/A,,Clear,0,2013-08-21 09:53:00
4:53 AM,68.0,39.9,36,29.84,10.0,South,5.8,-,N/A,,Partly Cloudy,190,2013-08-21 10:53:00
5:53 AM,64.9,39.9,40,29.87,10.0,WSW,5.8,-,N/A,,Clear,240,2013-08-21 11:53:00
6:53 AM,64.0,39.0,40,29.90,10.0,SSW,4.6,-,N/A,,Clear,200,2013-08-21 12:53:00
7:53 AM,72.0,37.9,29,29.92,10.0,WSW,4.6,-,N/A,,Clear,240,2013-08-21 13:53:00
8:53 AM,72.0,39.9,31,29.93,10.0,Calm,Calm,-,N/A,,Clear,0,2013-08-21 14:53:00
9:53 AM,77.0,45.0,32,29.93,10.0,NNE,6.9,-,N/A,,Clear,30,2013-08-21 15:53:00
10:53 AM,75.0,46.0,36,29.94,10.0,NNE,10.4,-,N/A,,Mostly Cloudy,30,2013-08-21 16:53:00
11:33 AM,71.6,51.8,50,30.09,6.0,North,3.5,-,0.01,Rain-Thunderstorm,Light Thunderstorms and Rain,10,2013-08-21 17:33:00
11:48 AM,71.6,53.6,53,30.09,10.0,South,4.6,-,0.01,Rain,Light Rain,170,2013-08-21 17:48:00
11:53 AM,72.0,52.0,49,29.96,10.0,WSW,5.8,-,0.01,Rain,Light Rain,240,2013-08-21 17:53:00
12:53 PM,78.1,48.0,35,29.97,10.0,South,6.9,-,0.00,,Mostly Cloudy,170,2013-08-21 18:53:00
1:43 PM,71.6,53.6,53,30.12,6.0,North,8.1,-,0.01,Rain-Thunderstorm,Light Thunderstorms and Rain,360,2013-08-21 19:43:00
1:53 PM,72.0,53.1,51,29.99,10.0,NE,8.1,-,0.01,Rain-Thunderstorm,Light Thunderstorms and Rain,50,2013-08-21 19:53:00
2:00 PM,71.6,53.6,53,30.11,10.0,NE,5.8,-,0.00,Rain,Light Rain,50,2013-08-21 20:00:00
2:53 PM,75.0,53.1,46,29.99,10.0,South,9.2,-,0.00,,Overcast,180,2013-08-21 20:53:00
3:34 PM,69.8,53.6,56,30.08,6.0,ENE,17.3,-,0.04,Rain,Rain,60,2013-08-21 21:34:00
3:53 PM,71.1,55.0,57,29.96,10.0,ENE,12.7,23.0,0.04,,Overcast,70,2013-08-21 21:53:00
4:53 PM,72.0,55.0,55,29.97,10.0,ENE,11.5,-,0.00,,Overcast,70,2013-08-21 22:53:00
5:53 PM,71.1,57.9,63,29.99,10.0,Calm,Calm,-,0.00,Thunderstorm,Partly Cloudy,0,2013-08-21 23:53:00
6:13 PM,73.4,57.2,57,30.10,10.0,Calm,Calm,-,N/A,,Clear,0,2013-08-22 00:13:00
6:53 PM,73.0,55.9,55,29.98,10.0,NE,5.8,-,N/A,,Clear,50,2013-08-22 00:53:00
7:53 PM,70.0,60.1,71,29.97,10.0,Calm,Calm,-,N/A,,Clear,0,2013-08-22 01:53:00
8:53 PM,69.1,55.0,61,30.00,10.0,South,6.9,-,N/A,,Clear,170,2013-08-22 02:53:00
9:53 PM,70.0,54.0,57,30.01,10.0,SE,8.1,-,N/A,,Clear,140,2013-08-22 03:53:00
10:53 PM,68.0,55.9,65,30.02,10.0,Variable,4.6,-,0.00,,Partly Cloudy,0,2013-08-22 04:53:00
11:53 PM,66.9,55.0,66,30.04,10.0,SSW,3.5,-,N/A,,Mostly Cloudy,210,2013-08-22 05:53:00